User: anonymous   Login
Location: Asheville, NC
(35.6000°N, 82.5500°W)
Time: 23:02:13
(UTC-04:00)
Language:

XW-2C - Orbit

View from above orbital plane
View from above orbital plane
View from above satellite
View from above satellite

Ground track
Ground track

The orbit data is extracted from the following two-line orbital elements,

1 40906U 15049H   18198.82828544  .00000513  00000-0  30748-4 0  9991
2 40906  97.4599 201.7590 0013373 285.7987  74.1770 15.15238323156136
Epoch (UTC): 17 July 2018 19:52:43
Eccentricity: 0.0013373
inclination: 97.4599°
perigee height: 511 km
apogee height: 529 km
right ascension of ascending node: 201.7590°
argument of perigee: 285.7987°
revolutions per day: 15.15238323
mean anomaly at epoch: 74.1770°
orbit number at epoch: 15613

The dashed part of the orbit path shows where the satellite is in the earth's shadow,  

DLR